Regional Weather Roundup
Issued by NWS

Home | Current Version | Previous Version | Graphics & Text | Print | Product List | Glossary On
Versions: 1 2 3 4 5 6 7 8 9 10 11 12 13 14 15 16 17 18 19 20 21 22 23 24 25 26 27 28 29 30 31 32 33 34 35 36 37 38 39 40 41 42 43 44 45 46 47 48 49 50
000
ASUS43 KDTX 050401
RWRMI
MICHIGAN HOURLY REGIONAL WEATHER ROUNDUP
NATIONAL WEATHER SERVICE DETROIT/PONTIAC MI
1100 PM EST WED MAR 04 2015

NOTE: "FAIR" INDICATES FEW OR NO CLOUDS BELOW 12,000 FEET WITH NO
SIGNIFICANT WEATHER AND/OR OBSTRUCTION TO VISIBILITY.

MIZ047>049-052>055-059>063-066>070-074>076-081>083-050500-
SOUTHEAST LOWER MICHIGAN

CITY           SKY/WX    TMP DP  RH WIND       PRES   REMARKS
ADRIAN         CLOUDY    16   0  49 N17G25    30.24R WCI   0
ALMA           PTCLDY     7  -3  63 W7        30.26R WCI  -5
ANN ARBOR      CLOUDY    16  -1  47 NW17G24   30.22R WCI   0
BAD AXE        MOCLDY    10   0  63 NW10      30.21R WCI  -4
CARO           MOCLDY    10  -2  57 NW10      30.23R WCI  -3
DETROIT CITY   CLOUDY    20  -2  38 NW18G26   30.21R WCI   5
DETROIT        CLOUDY    19   1  45 W16G23    30.23R WCI   4
FLINT          CLOUDY    15   0  51 NW14      30.23R WCI   0
GROSSE ILE     CLOUDY    19   0  42 NW14G21   30.21R WCI   6
HILLSDALE      CLOUDY    15   1  52 N16G22    30.20R WCI   0
HOWELL         CLOUDY    13   1  56 NW12      30.22R WCI   0

CITY           SKY/WX    TMP DP  RH WIND       PRES   REMARKS
JACKSON        CLOUDY    14  -2  49 NW15      30.23R WCI  -1
LAMBERTVILLE   CLOUDY    21   5  49 NW8G18    30.24R WCI  12
LANSING        CLOUDY    13  -2  51 NW10      30.26R WCI   0
LAPEER         FAIR      14  -2  48 NW10G16   30.22R WCI   1
MASON          CLOUDY    14  -1  51 NW15G23   30.24R WCI  -2
MONROE         CLOUDY    18   1  49 NW18G26   30.22R WCI   2
MT. CLEMENS    CLOUDY    18   0  45 NW18G24   30.19R WCI   2
PONTIAC        CLOUDY    15  -1  49 NW20G28   30.20R WCI  -2
PORT HOPE        N/A     12  -2  53 NW14      30.20R WCI  -3
PORT HURON     CLOUDY    16   1  53 NW16G25   30.21R WCI   0
TRI CITIES     MOCLDY    13  -1  54 NW13      30.26R WCI  -2
TROY           CLOUDY    19  -2  39 NW12G24   30.24R WCI   7
SAGINAW HB     MOCLDY    12   1  62 NW12      30.25R WCI  -2
$$
MIZ043>046-050>051-056>058-064>065-071>073-077>080-050500-
SOUTHWEST LOWER MICHIGAN

CITY           SKY/WX    TMP DP  RH WIND       PRES   REMARKS
BATTLE CREEK   CLOUDY    15   1  53 NW6       30.25R WCI   6
BENTON HARBOR  MOCLDY    17   3  54 VRB7      30.27S WCI   8
BIG RAPIDS     PTCLDY     7  -1  68 W5        30.23R WCI  -2
COLDWATER      CLOUDY    16   3  55 NW8       30.22F WCI   5
FREMONT        FAIR       8  -5  53 NW5       30.25F WCI   0
HOLLAND        PTCLDY    17   1  49 NW10      30.28S WCI   5
GRAND RAPIDS   PTCLDY    12  -2  53 NW9       30.25S WCI   0
IONIA          FAIR      12  -1  56 NW6       30.25R WCI   2
KALAMAZOO      CLOUDY    16   1  51 NW14      30.25R WCI   2
LUDINGTON      CLOUDY    16   0  51 NW7       30.27S WCI   6
MARSHALL       CLOUDY    14  -1  52 NW3       30.23S
MOUNT PLEASANT PTCLDY     9   2  73 CALM      30.25R
MUSKEGON       MOCLDY    14  -1  51 NW12      30.28R WCI   0
SOUTH HAVEN    MOCLDY    19   5  56 N15G21    30.26F WCI   4
$$
MIZ016>042-050500-
NORTHERN LOWER MICHIGAN

CITY           SKY/WX    TMP DP  RH WIND       PRES   REMARKS
ALPENA         PTCLDY     3  -7  63 NW8       30.23R WCI -10
BEAVER ISLAND  CLEAR      2  -6  68 NW9       30.26R WCI -12
BELLAIRE       CLEAR      3  -6  66 CALM      30.28R
CADILLAC       FLURRIES   4  -3  74 CALM      30.21R
CHARLEVOIX     CLEAR      2  -6  69 CALM      30.28R
FRANKFORT      CLOUDY    12  -1  56 NW8       30.28R WCI   0
GAYLORD        CLEAR      1  -9  62 VRB6      30.18R WCI -10
GRAYLING       CLEAR     -2  -8  75 CALM      30.22R
HARBOR SPRINGS PTCLDY     4  -8  56 NW9G17    30.24R WCI -11
HOUGHTON LAKE  PTCLDY     2  -5  72 NW5       30.23R WCI  -8
MANISTEE       MOCLDY    14  -4  44 N10       30.26R WCI   1
OSCODA         CLEAR      7  -5  59 N12       30.24R WCI  -9
PELLSTON       PTCLDY     0  -8  69 NW10      30.25R WCI -16
ROGERS CITY    PTCLDY     6  -4  64 NW14G24   30.23R WCI -11
TRAVERSE CITY  CLOUDY     5  -3  69 CALM      30.28R
$$
MIZ007>008-015-050500-
EASTERN UPPER MICHIGAN

CITY           SKY/WX    TMP DP  RH WIND       PRES   REMARKS
KINROSS        CLEAR     -6  -8  92 W6        30.20R WCI -18
MACKINAC ISLAN CLEAR      1  -5  75 W9        30.22R WCI -14
NEWBERRY       CLEAR     -5  -7  91 W7        30.21R WCI -19
S. S. MARIE    CLEAR     -4 -10  75 W6        30.19R WCI -16
MUNISING         N/A      4  -3  73 W7        30.27R WCI  -8
$$
MIZ004>006-011>014-085-050500-
CENTRAL UPPER MICHIGAN

CITY           SKY/WX    TMP DP  RH WIND       PRES   REMARKS
MANISTIQUE     PTCLDY    -3  -8  79 W6        30.26R WCI -15
ESCANABA       PTCLDY    -2  -9  71 W5        30.31R WCI -12
MENOMINEE      CLEAR      3 -11  51 N5        30.29S WCI  -6
SAWYER-GWINN   MOCLDY    -5 -12  73 W7        30.22R WCI -20
$$
MIZ001>003-009>011-084-050500-
WESTERN UPPER MICHIGAN

CITY           SKY/WX    TMP DP  RH WIND       PRES   REMARKS
IRON MOUNTAIN  CLEAR     -7 -16  65 NW3       30.23R
HOUGHTON       CLOUDY    -5 -11  75 NW7       30.21R WCI -19
COPPER HARBOR    N/A      5  -4  66 N17       30.23R WCI -14
IRONWOOD       MOCLDY     0  -8  71 SW8       30.22R WCI -15
$$

ABBREVIATIONS USED IN REMARKS
   TC - TEMPERATURE IN CELSIUS
  WCI - WIND CHILL INDEX
   HX - HEAT INDEX
  VSB - VISIBILITY



USA.gov is the U.S. government's official web portal to all federal, state and local government web resources and services.